DW7854 Weather Reports


Display with metric or nautical units.
time (UTC)temp
F
wind
direction
speed
MPH
gust
MPH
rain 1hr
in
rain 24hr
in
rain mn
in
humidity
%
barometer
mb
20260510023102 74 156 3.0 8.0 0.00 0.00 0.00 79 1009.6
20260510022337 74 142 4.0 9.0 0.00 0.00 0.00 78 1009.5
20260510021507 75 153 3.0 10.0 0.00 0.00 0.00 77 1009.4
20260510021437 75 133 5.0 10.0 0.00 0.00 0.00 77 1009.4
20260510020537 76 126 5.0 12.0 0.00 0.00 0.00 77 1009.2
20260510020112 76 143 2.0 8.0 0.00 0.00 0.00 80 1009.1
20260510014510 77 135 3.0 12.0 0.00 0.00 0.00 80 1008.8
20260510013002 78 140 5.0 8.0 0.00 0.00 0.00 78 1008.6
20260510012937 78 129 3.0 8.0 0.00 0.00 0.00 77 1008.7
20260510012037 78 128 2.0 5.0 0.00 0.00 0.00 76 1008.4
20260510011508 78 135 1.0 5.0 0.00 0.00 0.00 75 1008.4
20260510011137 79 137 2.0 5.0 0.00 0.00 0.00 75 1008.4
20260510010237 79 115 2.0 4.0 0.00 0.00 0.00 73 1008.3
20260510010007 79 150 2.0 4.0 0.00 0.00 0.00 73 1008.3
20260510005337 80 107 0.0 3.0 0.00 0.00 0.00 71 1008.2
20260510004503 80 69 0.0 1.0 0.00 0.00 0.00 70 1008.1
20260510004437 81 69 0.0 1.0 0.00 0.00 0.00 70 1008.1
20260510003537 81 115 0.0 2.0 0.00 0.00 0.00 69 1007.9
20260510003103 81 115 0.0 2.0 0.00 0.00 0.00 68 1008.0
20260510001737 82 141 1.0 3.0 0.00 0.00 0.00 68 1007.7
20260510001602 82 151 1.0 3.0 0.00 0.00 0.00 66 1007.8
20260510000837 82 114 1.0 3.0 0.00 0.00 0.00 64 1007.6
20260510000013 83 113 0.0 3.0 0.00 0.00 0.00 65 1007.7
20260509235037 84 166 2.0 4.0 0.00 0.00 0.00 64 1007.6
20260509234507 83 150 1.0 4.0 0.00 0.00 0.00 64 1007.6
20260509234137 84 157 3.0 5.0 0.00 0.00 0.00 63 1007.5
20260509233237 85 143 3.0 5.0 0.00 0.00 0.00 63 1007.6
20260509233107 84 136 2.0 5.0 0.00 0.00 0.00 62 1007.6
20260509232337 85 163 3.0 6.0 0.00 0.00 0.00 61 1007.4
20260509231610 85 177 1.0 5.0 0.00 0.00 0.00 61 1007.5
20260509230537 86 177 2.0 5.0 0.00 0.00 0.00 58 1007.5
20260509230103 85 182 2.0 4.0 0.00 0.00 0.00 60 1007.5
20260509225637 86 172 3.0 6.0 0.00 0.00 0.00 60 1007.5
20260509224737 86 159 3.0 5.0 0.00 0.00 0.00 60 1007.4
20260509224504 85 171 3.0 6.0 0.00 0.00 0.00 61 1007.4
20260509223837 86 129 3.0 5.0 0.00 0.00 0.00 59 1007.4
20260509223005 85 154 2.0 6.0 0.00 0.00 0.00 61 1007.3
20260509222036 86 154 2.0 5.0 0.00 0.00 0.00 60 1007.3
20260509221507 85 180 2.0 5.0 0.00 0.00 0.00 61 1007.3
20260509221137 86 148 3.0 5.0 0.00 0.00 0.00 62 1007.4
20260509220237 86 129 2.0 5.0 0.00 0.00 0.00 61 1007.4
20260509220107 85 174 2.0 6.0 0.00 0.00 0.00 61 1007.3
20260509215337 86 153 3.0 6.0 0.00 0.00 0.00 59 1007.4
20260509214504 86 105 4.0 7.0 0.00 0.00 0.00 59 1007.3
20260509214437 87 182 4.0 7.0 0.00 0.00 0.00 61 1007.3
20260509213537 86 159 2.0 5.0 0.00 0.00 0.00 62 1007.3
20260509213104 85 174 2.0 5.0 0.00 0.00 0.00 63 1007.5
20260509212636 85 154 4.0 7.0 0.00 0.00 0.00 63 1007.4
20260509211511 83 181 3.0 7.0 0.00 0.00 0.00 66 1007.6
20260509210837 83 157 2.0 6.0 0.00 0.00 0.00 65 1007.7
20260509210109 83 85 0.0 3.0 0.00 0.00 0.00 63 1007.9
20260509205937 83 86 1.0 3.0 0.00 0.00 0.00 64 1007.8
20260509205037 84 114 2.0 7.0 0.00 0.00 0.00 65 1008.0
20260509204512 84 277 1.0 7.0 0.00 0.00 0.00 62 1008.1
20260509204136 85 62 1.0 7.0 0.00 0.00 0.00 62 1008.1
20260509203236 86 151 3.0 7.0 0.00 0.00 0.00 62 1008.1
20260509203012 85 84 3.0 7.0 0.00 0.00 0.00 63 1008.2
20260509202336 86 132 3.0 7.0 0.00 0.00 0.00 65 1008.2
20260509201604 85 110 3.0 9.0 0.00 0.00 0.00 65 1008.4
20260509201436 85 125 4.0 9.0 0.00 0.00 0.00 65 1008.4
20260509200005 86 125 3.0 6.0 0.00 0.00 0.00 65 1008.5
20260509195636 86 152 2.0 6.0 0.00 0.00 0.00 62 1008.6
20260509194737 86 167 4.0 8.0 0.00 0.00 0.00 61 1008.6
20260509194606 86 170 4.0 8.0 0.00 0.00 0.00 61 1008.6
20260509193836 85 174 3.0 8.0 0.00 0.00 0.00 63 1008.7
20260509193006 85 163 5.0 7.0 0.00 0.00 0.00 62 1008.8
20260509192937 85 157 4.0 7.0 0.00 0.00 0.00 62 1008.8
20260509192037 85 80 3.0 5.0 0.00 0.00 0.00 65 1008.9
20260509191505 84 142 2.0 8.0 0.00 0.00 0.00 65 1008.9
20260509191136 85 152 4.0 9.0 0.00 0.00 0.00 65 1009.0
20260509190004 84 91 2.0 6.0 0.00 0.00 0.00 66 1009.0
20260509184515 83 110 2.0 6.0 0.00 0.00 0.00 64 1009.2
20260509184437 84 142 3.0 8.0 0.00 0.00 0.00 67 1009.2
20260509183536 84 139 2.0 8.0 0.00 0.00 0.00 67 1009.1
20260509183104 82 159 1.0 5.0 0.00 0.00 0.00 69 1009.2
20260509182636 83 116 2.0 4.0 0.00 0.00 0.00 66 1009.1
20260509181736 83 78 2.0 5.0 0.00 0.00 0.00 65 1009.1
20260509181603 83 334 1.0 5.0 0.00 0.00 0.00 64 1009.2
20260509180103 82 322 3.0 7.0 0.00 0.00 0.00 66 1009.2
20260509175936 82 341 3.0 6.0 0.00 0.00 0.00 66 1009.2
20260509174508 81 299 3.0 6.0 0.00 0.00 0.00 67 1009.4
20260509174136 82 67 3.0 7.0 0.00 0.00 0.00 67 1009.3
20260509173015 81 77 0.0 3.0 0.00 0.00 0.00 67 1009.6
20260509172336 81 44 1.0 3.0 0.00 0.00 0.00 68 1009.6
20260509171510 81 67 1.0 4.0 0.00 0.00 0.00 68 1009.8
20260509171436 81 72 1.0 4.0 0.00 0.00 0.00 68 1009.7
20260509170126 80 325 2.0 6.0 0.00 0.00 0.00 69 1009.7
20260509165636 81 160 1.0 2.0 0.00 0.00 0.00 74 1009.6
20260509164506 79 143 1.0 4.0 0.00 0.00 0.00 71 1009.7
20260509163836 80 39 1.0 3.0 0.00 0.00 0.00 72 1009.6
20260509163104 79 46 1.0 6.0 0.00 0.00 0.00 72 1009.7
20260509162936 80 26 1.0 6.0 0.00 0.00 0.00 73 1009.5
20260509162036 79 78 1.0 5.0 0.00 0.00 0.00 79 1009.4
20260509161603 78 54 0.0 5.0 0.00 0.00 0.00 76 1009.4
20260509161136 78 21 1.0 5.0 0.00 0.00 0.00 75 1009.4
20260509160236 78 48 1.0 3.0 0.00 0.00 0.00 78 1009.3
20260509160016 78 125 1.0 4.0 0.00 0.00 0.00 76 1009.4
20260509155336 79 293 2.0 6.0 0.00 0.00 0.00 75 1009.6
20260509154506 78 253 2.0 5.0 0.00 0.00 0.00 77 1009.6
20260509154436 78 335 1.0 5.0 0.00 0.00 0.00 76 1009.5
20260509153536 78 318 3.0 6.0 0.00 0.00 0.00 76 1009.6
20260509153103 78 5 3.0 5.0 0.00 0.00 0.00 77 1009.9
20260509152636 78 238 1.0 5.0 0.00 0.00 0.00 77 1009.8
20260509151736 77 262 1.0 5.0 0.00 0.00 0.00 78 1009.7
20260509151626 76 58 1.0 5.0 0.00 0.00 0.00 77 1009.9
20260509150009 75 227 1.0 6.0 0.00 0.00 0.00 81 1010.0
20260509145936 76 203 2.0 6.0 0.00 0.00 0.00 82 1009.8
20260509145036 74 211 1.0 4.0 0.00 0.00 0.00 84 1009.9
20260509144503 73 333 1.0 4.0 0.00 0.00 0.00 86 1010.0
20260509144136 73 310 1.0 4.0 0.00 0.00 0.00 87 1009.9
20260509143236 72 329 1.0 3.0 0.00 0.00 0.00 87 1010.0
20260509143108 71 336 0.0 3.0 0.00 0.00 0.00 87 1010.2
20260509142336 71 329 1.0 4.0 0.00 0.00 0.00 88 1010.0
20260509141606 70 346 0.0 3.0 0.00 0.00 0.00 88 1010.1
20260509141436 70 333 1.0 4.0 0.00 0.00 0.00 89 1010.0
20260509140536 70 311 1.0 4.0 0.00 0.00 0.00 89 1010.0
20260509140107 69 279 0.0 3.0 0.00 0.00 0.00 90 1010.2
20260509135636 69 195 1.0 2.0 0.00 0.00 0.00 91 1010.0
20260509134736 68 135 0.0 2.0 0.00 0.00 0.00 92 1010.0
20260509134606 68 136 0.0 2.0 0.00 0.00 0.00 92 1010.2
20260509133836 68 160 0.0 2.0 0.00 0.00 0.00 93 1010.1
20260509133106 67 67 0.0 2.0 0.00 0.00 0.00 93 1010.3
20260509132036 66 74 0.0 2.0 0.00 0.00 0.00 93 1010.2
20260509131510 65 67 0.0 1.0 0.00 0.00 0.00 93 1010.4
20260509131136 66 102 0.0 2.0 0.00 0.00 0.00 94 1010.3
20260509130236 65 76 0.0 2.0 0.00 0.00 0.00 94 1010.3
20260509130128 65 76 0.0 2.0 0.00 0.00 0.00 94 1010.5
20260509125336 64 202 0.0 2.0 0.00 0.00 0.00 94 1010.3
20260509124605 64 205 0.0 1.0 0.00 0.00 0.00 93 1010.5
20260509124436 64 30 0.0 1.0 0.00 0.00 0.00 93 1010.2
20260509123536 64 31 0.0 1.0 0.00 0.00 0.00 94 1010.2
20260509123008 63 30 0.0 2.0 0.00 0.00 0.00 93 1010.4
20260509122636 64 159 0.0 2.0 0.00 0.00 0.00 93 1010.1
20260509121736 63 120 0.0 1.0 0.00 0.00 0.00 93 1009.9
20260509121604 63 121 0.0 1.0 0.00 0.00 0.00 93 1010.0
20260509120836 63 61 0.0 2.0 0.00 0.00 0.00 93 1009.7
20260509120012 63 28 0.0 2.0 0.00 0.00 0.00 93 1009.7
20260509115936 63 37 0.0 2.0 0.00 0.00 0.00 93 1009.5
20260509115036 63 100 0.0 1.0 0.00 0.00 0.00 92 1009.2
20260509114505 63 100 0.0 0.0 0.00 0.00 0.00 92 1009.3
20260509114136 63 281 0.0 1.0 0.00 0.00 0.00 92 1009.1
20260509113236 63 189 0.0 1.0 0.00 0.00 0.00 91 1008.9
20260509113136 63 164 0.0 1.0 0.00 0.00 0.00 91 1009.1
20260509112336 63 0 0.0 0.0 0.00 0.00 0.00 91 1008.8
20260509111504 63 238 0.0 0.0 0.00 0.00 0.00 91 1008.9
20260509111436 63 0 0.0 0.0 0.00 0.00 0.00 91 1008.7
20260509110536 64 0 0.0 0.0 0.00 0.00 0.00 91 1008.5
20260509110107 63 248 0.0 0.0 0.00 0.00 0.00 91 1008.5
20260509104506 63 248 0.0 0.0 0.00 0.00 0.00 90 1008.7
20260509103836 64 0 0.0 0.0 0.00 0.00 0.00 91 1008.5
20260509103003 63 248 0.0 0.0 0.00 0.00 0.00 90 1008.7
20260509101512 63 248 0.0 1.0 0.00 0.00 0.00 90 1008.8
20260509100236 64 193 0.0 2.0 0.00 0.00 0.00 90 1008.6
20260509100005 64 192 0.0 1.0 0.00 0.00 0.00 90 1008.8
20260509095336 64 193 0.0 2.0 0.00 0.00 0.00 90 1008.6
20260509094436 64 190 2.0 3.0 0.00 0.00 0.00 89 1008.8
20260509093536 64 185 1.0 3.0 0.00 0.00 0.00 89 1008.8
20260509093006 64 30 0.0 2.0 0.00 0.00 0.00 89 1009.0
20260509092636 64 0 0.0 0.0 0.00 0.00 0.00 88 1008.8
20260509091603 64 30 0.0 0.0 0.00 0.00 0.00 88 1008.9
20260509090836 64 0 0.0 0.0 0.00 0.00 0.00 88 1008.6
20260509090003 64 30 0.0 0.0 0.00 0.00 0.00 88 1008.7
20260509085936 64 0 0.0 0.0 0.00 0.00 0.00 88 1008.5
20260509085036 64 0 0.0 0.0 0.00 0.00 0.00 88 1008.3
20260509084509 64 30 0.0 0.0 0.00 0.00 0.00 88 1008.5
20260509084136 64 0 0.0 0.0 0.00 0.00 0.00 88 1008.4
20260509083236 64 0 0.0 0.0 0.00 0.00 0.00 88 1008.5
20260509083003 64 30 0.0 2.0 0.00 0.00 0.00 88 1008.6
20260509082336 64 11 1.0 3.0 0.00 0.00 0.00 88 1008.5
20260509081506 64 355 1.0 3.0 0.00 0.00 0.00 88 1008.6
20260509081436 64 1 1.0 3.0 0.00 0.00 0.00 88 1008.4
20260509080536 64 1 0.0 1.0 0.00 0.00 0.00 88 1008.6
20260509080005 64 360 0.0 1.0 0.00 0.00 0.00 88 1009.0
20260509075636 64 1 0.0 2.0 0.00 0.00 0.00 88 1008.7
20260509074603 64 71 0.0 2.0 0.00 0.00 0.00 88 1009.0
20260509073836 64 43 1.0 3.0 0.00 0.00 0.00 88 1008.9
20260509073006 64 5 1.0 4.0 0.00 0.00 0.00 88 1009.0
20260509072936 64 16 1.0 4.0 0.00 0.00 0.00 88 1008.8
20260509072036 64 30 1.0 4.0 0.00 0.00 0.00 88 1009.0
20260509071605 64 355 1.0 3.0 0.00 0.00 0.00 88 1009.3
20260509070236 64 24 0.0 2.0 0.00 0.00 0.00 88 1009.2
20260509070004 63 23 0.0 1.0 0.00 0.00 0.00 88 1009.4
20260509065336 64 27 0.0 3.0 0.00 0.00 0.00 88 1009.3
20260509064509 63 55 0.0 1.0 0.00 0.00 0.00 88 1009.8
20260509064436 64 22 0.0 1.0 0.00 0.00 0.00 88 1009.5
20260509063008 63 23 1.0 4.0 0.00 0.00 0.00 88 1010.0
20260509062636 64 2 1.0 4.0 0.00 0.00 0.00 89 1009.9
20260509061736 64 5 0.0 1.0 0.00 0.00 0.00 88 1010.4
20260509061510 63 5 0.0 2.0 0.00 0.00 0.00 88 1010.6
20260509060836 64 5 0.0 2.0 0.00 0.00 0.00 88 1010.5
20260509060104 63 5 0.0 2.0 0.00 0.00 0.00 88 1010.8
20260509055936 64 357 0.0 3.0 0.00 0.00 0.00 88 1010.6
20260509054508 63 18 0.0 3.0 0.00 0.00 0.00 87 1010.6
20260509054136 64 12 1.0 4.0 0.00 0.00 0.00 87 1010.3
20260509053236 64 34 2.0 4.0 0.00 0.00 0.00 87 1009.9
20260509053008 64 355 2.0 4.0 0.00 0.00 0.00 87 1010.2
20260509052336 64 36 1.0 5.0 0.00 0.00 0.00 87 1010.0
20260509051609 64 29 1.0 4.0 0.00 0.00 0.00 87 1010.2
20260509051436 64 356 2.0 5.0 0.00 0.00 0.00 87 1010.0
20260509050536 64 114 1.0 5.0 0.00 0.00 0.00 87 1009.9
20260509050015 64 138 0.0 1.0 0.00 0.00 0.00 86 1009.8
20260509045636 64 138 0.0 1.0 0.00 0.00 0.00 86 1009.4
20260509044736 64 78 0.0 3.0 0.00 0.00 0.00 86 1009.2
20260509044509 64 145 0.0 3.0 0.00 0.00 0.00 86 1009.3
20260509043104 65 47 0.0 3.0 0.00 0.00 0.00 86 1010.1
20260509042936 65 353 1.0 3.0 0.00 0.00 0.00 85 1009.9
20260509042036 66 24 0.0 2.0 0.00 0.00 0.00 85 1009.9
20260509041604 65 90 0.0 2.0 0.00 0.00 0.00 84 1010.4
20260509041136 66 90 0.0 2.0 0.00 0.00 0.00 84 1010.3
20260509040236 67 0 0.0 0.0 0.00 0.00 0.00 83 1010.3
20260509040005 66 131 0.0 0.0 0.00 0.00 0.00 82 1010.5
20260509035336 67 130 0.0 1.0 0.00 0.00 0.00 82 1010.4
20260509034506 67 131 0.0 1.0 0.00 0.00 0.00 81 1011.0
20260509034436 67 111 0.0 1.0 0.00 0.00 0.00 81 1010.7
20260509033536 67 354 0.0 3.0 0.00 0.00 0.00 82 1010.5
20260509033004 67 355 0.0 5.0 0.00 0.00 0.00 82 1010.8
20260509032636 67 342 3.0 7.0 0.00 0.00 0.00 82 1010.6
20260509031736 67 341 3.0 6.0 0.00 0.00 0.00 81 1010.0
20260509031611 67 355 3.0 6.0 0.00 0.00 0.00 81 1010.2
20260509030836 67 1 2.0 5.0 0.00 0.00 0.00 80 1009.6
20260509030115 67 360 0.0 3.0 0.00 0.00 0.00 80 1009.4
20260509025936 68 32 1.0 3.0 0.00 0.00 0.00 80 1009.2
20260509025036 68 106 0.0 3.0 0.00 0.00 0.00 79 1008.9
20260509024503 67 115 0.0 3.0 0.00 0.00 0.00 80 1008.7
20260509024136 68 148 1.0 3.0 0.00 0.00 0.00 80 1008.3